Simultaneous Nadir Overpasses (SNOs) Predictions

Prediction of SNOs between AQUA and NOAA-19 Satellite Orbit:

Table of predicted SNOs for the next 14.0 days since TLE Epoch: 7/23/2022
Index Date (AQUA) Time (AQUA) Lat,Lon (AQUA) SZA (AQUA ) Date (NOAA-19) Time (NOAA-19) Lat,Lon (NOAA-19) SZA (NOAA-19 ) Distance(km) Time Diff (sec)
1 07/25/2022 02:56:21 77.45, 120.40 58.32 07/25/2022 02:55:08 77.37, 120.06 58.30 12.00 73
2 07/25/2022 03:45:47 -77.48, -72.08 121.64 07/25/2022 03:46:07 -77.49, -72.07 121.63 1.90 20
3 07/27/2022 09:19:01 77.46, 24.71 58.83 07/27/2022 09:18:59 77.46, 24.60 58.84 2.45 2
4 07/29/2022 14:52:14 -77.47, 121.38 120.64 07/29/2022 14:51:56 -77.44, 121.36 120.66 3.03 18
5 07/29/2022 15:41:41 77.48, -71.05 59.39 07/29/2022 15:42:51 77.50, -71.07 59.39 1.99 70
6 07/31/2022 20:25:27 77.44,-141.80 59.87 07/31/2022 20:24:46 77.43,-141.84 59.87 1.49 41
7 07/31/2022 21:14:54 -77.50, 25.58 120.05 07/31/2022 21:15:48 -77.50, 25.77 120.08 4.52 54
8 08/03/2022 01:58:39 -77.42, -45.02 119.59 08/03/2022 01:57:44 -77.40, -45.11 119.59 2.99 55
9 08/03/2022 02:48:06 77.45, 122.51 60.45 08/03/2022 02:48:38 77.46, 122.45 60.46 2.31 32
10 08/05/2022 07:31:48 77.25, 52.39 60.78 08/05/2022 07:30:38 77.18, 50.68 60.86 42.83 70
11 08/05/2022 08:21:18 -77.44,-140.75 118.97 08/05/2022 08:21:36 -77.45,-140.76 118.97 1.32 18



Historial Predications of SNOs between AQUA and NOAA-19
